Time,TemperatureF,DewpointF,PressureIn,WindDirection,WindDirectionDegrees,WindSpeedMPH,WindSpeedGustMPH,Humidity,HourlyPrecipIn,Conditions,Clouds,dailyrainin,SoftwareType,DateUTC
2013-09-07 00:00:00,59.0,48.0,-100.00,WNW,295,3.0,9.0,69,-99.99,,,-99.99,,2013-09-07 06:00:00,
2013-09-07 00:43:00,59.0,48.0,-100.00,WNW,295,3.0,9.0,69,-99.99,,,-99.99,,2013-09-07 06:43:00,
2013-09-07 00:52:00,59.0,48.0,-100.00,WNW,295,3.0,9.0,69,-99.99,,,-99.99,,2013-09-07 06:52:00,
2013-09-07 01:00:00,59.0,48.0,-100.00,NW,316,3.0,6.0,68,-99.99,,,-99.99,,2013-09-07 07:00:00,
2013-09-07 01:42:00,59.0,48.0,-100.00,NW,316,3.0,6.0,68,-99.99,,,-99.99,,2013-09-07 07:42:00,
2013-09-07 01:52:00,59.0,48.0,-100.00,NW,316,3.0,6.0,68,-99.99,,,-99.99,,2013-09-07 07:52:00,
2013-09-07 02:00:00,59.0,48.0,-100.00,North,354,2.0,4.0,67,-99.99,,,-99.99,,2013-09-07 08:00:00,
2013-09-07 02:43:00,59.0,48.0,-100.00,North,354,2.0,4.0,67,-99.99,,,-99.99,,2013-09-07 08:43:00,
2013-09-07 02:53:00,59.0,48.0,-100.00,North,354,2.0,4.0,67,-99.99,,,-99.99,,2013-09-07 08:53:00,
2013-09-07 03:00:00,57.0,48.0,-100.00,SSW,194,2.0,5.0,72,-99.99,,,-99.99,,2013-09-07 09:00:00,
2013-09-07 03:42:00,57.0,48.0,-100.00,SSW,194,2.0,5.0,72,-99.99,,,-99.99,,2013-09-07 09:42:00,
2013-09-07 03:52:00,57.0,48.0,-100.00,SSW,194,2.0,5.0,72,-99.99,,,-99.99,,2013-09-07 09:52:00,
2013-09-07 04:00:00,57.0,48.0,-100.00,SSW,194,2.0,5.0,72,-99.99,,,-99.99,,2013-09-07 10:00:00,
2013-09-07 04:41:00,57.0,48.0,-100.00,SSW,194,2.0,5.0,72,-99.99,,,-99.99,,2013-09-07 10:41:00,
2013-09-07 04:51:00,57.0,48.0,-100.00,SSW,194,2.0,5.0,72,-99.99,,,-99.99,,2013-09-07 10:51:00,
2013-09-07 05:00:00,57.0,48.0,-100.00,SSW,205,2.0,5.0,72,-99.99,,,-99.99,,2013-09-07 11:00:00,
2013-09-07 05:43:00,57.0,48.0,-100.00,SSW,205,2.0,5.0,72,-99.99,,,-99.99,,2013-09-07 11:43:00,
2013-09-07 05:52:00,57.0,48.0,-100.00,SSW,205,2.0,5.0,72,-99.99,,,-99.99,,2013-09-07 11:52:00,
2013-09-07 06:00:00,57.0,48.0,-100.00,South,183,2.0,5.0,72,-99.99,,,-99.99,,2013-09-07 12:00:00,
2013-09-07 06:42:00,57.0,48.0,-100.00,South,183,2.0,5.0,72,-99.99,,,-99.99,,2013-09-07 12:42:00,
2013-09-07 06:52:00,57.0,48.0,-100.00,South,183,2.0,5.0,72,-99.99,,,-99.99,,2013-09-07 12:52:00,
2013-09-07 07:00:00,59.0,47.0,-100.00,South,187,3.0,5.0,66,-99.99,,,-99.99,,2013-09-07 13:00:00,
2013-09-07 07:42:00,59.0,47.0,-100.00,South,187,3.0,5.0,66,-99.99,,,-99.99,,2013-09-07 13:42:00,
2013-09-07 07:52:00,59.0,47.0,-100.00,South,187,3.0,5.0,66,-99.99,,,-99.99,,2013-09-07 13:52:00,
2013-09-07 08:00:00,60.0,48.0,-100.00,SSW,193,3.0,5.0,65,-99.99,,,-99.99,,2013-09-07 14:00:00,
2013-09-07 08:42:00,60.0,48.0,-100.00,SSW,193,3.0,5.0,65,-99.99,,,-99.99,,2013-09-07 14:42:00,
2013-09-07 08:52:00,60.0,48.0,-100.00,SSW,193,3.0,5.0,65,-99.99,,,-99.99,,2013-09-07 14:52:00,
2013-09-07 10:00:00,68.0,53.0,-100.00,NNE,13,1.0,4.0,58,-99.99,,,-99.99,,2013-09-07 16:00:00,
2013-09-07 10:43:00,68.0,53.0,-100.00,NNE,13,1.0,4.0,58,-99.99,,,-99.99,,2013-09-07 16:43:00,
2013-09-07 10:53:00,68.0,53.0,-100.00,NNE,13,1.0,4.0,58,-99.99,,,-99.99,,2013-09-07 16:53:00,
2013-09-07 18:00:00,53.0,52.0,-100.00,West,267,23.0,41.0,95,-99.99,,,-99.99,,2013-09-08 00:00:00,
2013-09-07 18:42:00,53.0,52.0,-100.00,West,267,23.0,41.0,95,-99.99,,,-99.99,,2013-09-08 00:42:00,
2013-09-07 18:52:00,53.0,52.0,-100.00,West,267,23.0,41.0,95,-99.99,,,-99.99,,2013-09-08 00:52:00,
2013-09-07 19:00:00,51.0,51.0,-100.00,SW,227,5.0,26.0,100,-99.99,,,-99.99,,2013-09-08 01:00:00,
2013-09-07 19:42:00,51.0,51.0,-100.00,SW,227,5.0,26.0,100,-99.99,,,-99.99,,2013-09-08 01:42:00,
2013-09-07 19:52:00,51.0,51.0,-100.00,SW,227,5.0,26.0,100,-99.99,,,-99.99,,2013-09-08 01:52:00,
2013-09-07 20:00:00,50.0,50.0,-100.00,SSW,209,2.0,8.0,100,-99.99,,,-99.99,,2013-09-08 02:00:00,
2013-09-07 20:43:00,50.0,50.0,-100.00,SSW,209,2.0,8.0,100,-99.99,,,-99.99,,2013-09-08 02:43:00,
2013-09-07 20:52:00,50.0,50.0,-100.00,SSW,209,2.0,8.0,100,-99.99,,,-99.99,,2013-09-08 02:52:00,
2013-09-07 21:00:00,-999.0,-99.9,-100.00,SSW,207,2.0,8.0,-999,-99.99,,,-99.99,,2013-09-08 03:00:00,
2013-09-07 21:44:00,50.0,50.0,-100.00,SSW,207,2.0,8.0,100,-99.99,,,-99.99,,2013-09-08 03:44:00,
2013-09-07 21:54:00,50.0,50.0,-100.00,SSW,207,2.0,8.0,100,-99.99,,,-99.99,,2013-09-08 03:54:00,
2013-09-07 22:00:00,50.0,50.0,-100.00,SSW,197,4.0,9.0,100,-99.99,,,-99.99,,2013-09-08 04:00:00,
2013-09-07 22:43:00,50.0,50.0,-100.00,SSW,197,4.0,9.0,100,-99.99,,,-99.99,,2013-09-08 04:43:00,
2013-09-07 22:54:00,50.0,50.0,-100.00,SSW,197,4.0,9.0,100,-99.99,,,-99.99,,2013-09-08 04:54:00,
2013-09-07 23:00:00,52.0,51.0,-100.00,NW,306,3.0,14.0,97,-99.99,,,-99.99,,2013-09-08 05:00:00,
2013-09-07 23:43:00,52.0,51.0,-100.00,NW,306,3.0,14.0,97,-99.99,,,-99.99,,2013-09-08 05:43:00,
2013-09-07 23:52:00,52.0,51.0,-100.00,NW,306,3.0,14.0,97,-99.99,,,-99.99,,2013-09-08 05:52:00,